User: anonymous   Login
Location: Franzen
(48.6167°N, 15.3833°E)
Time: 23:32:44
(UTC+00:00)
Language:

Ariane Rocket - Orbit

View from above orbital plane
View from above orbital plane
View from above satellite
View from above satellite

Ground track
Ground track

The orbit data is extracted from the following two-line orbital elements,

1 23561U 95021B   21174.60869035  .00000039  00000-0  27889-4 0  9996
2 23561  98.6737 224.4717 0006092 225.6146 250.1268 14.38031827371911
Epoch (UTC): 23 June 2021 14:36:30
Eccentricity: 0.0006092
inclination: 98.6737°
perigee height: 760 km
apogee height: 769 km
right ascension of ascending node: 224.4717°
argument of perigee: 225.6146°
revolutions per day: 14.38031827
mean anomaly at epoch: 250.1268°
orbit number at epoch: 37191

The dashed part of the orbit path shows where the satellite is in the earth's shadow,  

DLR